Вернуться в каталог

COSMOS 2239

АктивенВоенныеPO
NORAD 22590·PAYLOAD·🇷🇺 Russia

Запущен Apr 1, 1993 с Plesetsk Cosmodrome

Loading…

Ближайшие Пролёты (ближайшие 24 часа)

TLE

СвежийSource: Space-Track

Эпоха: Sep 14, 2026, 05:52 UTC

1 22590U 93020A   26257.24498832  .00000036  00000-0  21489-4 0  9991
2 22590  82.9272  74.6012 0024003  47.1777 126.3148 13.75640851679021

Отслеживайте COSMOS 2239 в реальном времени с AllMySat

Download on the App Store